This demonstration page uses our WeatherBlox Daily Observations layout. Learn more.

Left ArrowRight Arrow

Hourly Observations for September 11, 2020

Temp ( °F °C ) Dew Point ( °F °C ) Humidity (%) Winds ( mph kmh ) Pressure ( in mb ) Visibility ( mi km ) Precip ( " mm )
12:51 am 00:51 Clear 65 18.3 52 11.1 63 63 SE 7 11 30.05 1018 10 16.0934 0 0
1:51 am 01:51 Clear 64 17.8 52 11.1 65 65 SE 6 9 30.04 1017 10 16.0934 0 0
2:51 am 02:51 Clear 62 16.7 52 11.1 70 70 SE 7 11 30.04 1017 10 16.0934 0 0
3:51 am 03:51 Clear 62 16.7 52 11.1 70 70 SE 8 13 30.03 1017 10 16.0934 0 0
4:51 am 04:51 Clear 61 16.1 51 10.6 70 70 ESE 6 9 30.04 1017 10 16.0934 0 0
5:51 am 05:51 Clear 60 15.6 51 10.6 72 72 ESE 7 11 30.05 1018 10 16.0934 0 0
6:51 am 06:51 Sunny 61 16.1 52 11.1 72 72 ESE 7 11 30.07 1018 10 16.0934 0 0
7:51 am 07:51 Sunny 63 17.2 52 11.1 68 68 ESE 8 13 30.08 1019 10 16.0934 0 0
8:51 am 08:51 Sunny 67 19.4 53 11.7 61 61 SE 9 15 30.08 1019 10 16.0934 0 0
9:51 am 09:51 Sunny 69 20.6 53 11.7 57 57 SSE 9 15 30.08 1019 10 16.0934 0 0
10:51 am 10:51 Sunny 73 22.8 53 11.7 50 50 SSE 10 17 30.06 1018 10 16.0934 0 0
11:51 am 11:51 Sunny 75 23.9 53 11.7 46 46 SSE 10 17 30.02 1017 10 16.0934 0 0
12:51 pm 12:51 Sunny 78 25.6 53 11.7 42 42 SSE 13 20 29.99 1016 10 16.0934 0 0
1:51 pm 13:51 Sunny 79 26.1 54 12.2 42 42 VRB 6 9 29.95 1014 10 16.0934 0 0
2:51 pm 14:51 Sunny 79 26.1 53 11.7 41 41 undefined N/A 29.93 1013 10 16.0934 0 0
3:51 pm 15:51 Sunny 80 26.7 53 11.7 39 39 S 5 7 29.91 1013 10 16.0934 0 0
4:51 pm 16:51 Sunny 80 26.7 53 11.7 39 39 S 5 7 29.9 1013 10 16.0934 0 0
5:51 pm 17:51 Sunny 79 26.1 53 11.7 41 41 SSW 5 7 29.9 1013 10 16.0934 0 0
6:51 pm 18:51 Clear 76 24.4 53 11.7 45 45 Calm 29.9 1013 10 16.0934 0 0
7:51 pm 19:51 Clear 72 22.2 51 10.6 48 48 Calm 29.91 1013 10 16.0934 0 0
8:51 pm 20:51 Clear 70 21.1 50 10 49 49 ENE 5 7 29.93 1013 10 16.0934 0 0
9:51 pm 21:51 Clear 67 19.4 50 10 55 55 E 3 6 29.93 1013 10 16.0934 0 0
10:51 pm 22:51 Clear 66 18.9 50 10 56 56 Calm 29.92 1013 10 16.0934 0 0
11:51 pm 23:51 Clear 65 18.3 50 10 59 59 ESE 5 7 29.91 1013 10 16.0934 0 0

Powered by AerisWeather